Rayong, Thailand

7:46 PM +07 on April 25, 2017 (GMT +0700)
U-Taphao International

Weather History for VTBU - December, 2011

Change the Weather History Date:

Thursday, December 29, 2011

  Actual Average Record
Temperature  
Mean Temperature 81 °F -  
Max Temperature 91 °F 87 °F 95 °F (2002)
Min Temperature 71 °F 70 °F 60 °F (2013)
Cooling Degree Days 16    
Growing Degree Days 31 (Base 50)    
Moisture  
Dew Point 71 °F    
Average Humidity 72    
Maximum Humidity 89    
Minimum Humidity 43    
Precipitation  
Precipitation 0.00 in - - ()
Sea Level Pressure  
Sea Level Pressure 29.88 in    
Wind  
Wind Speed 5 mph ()    
Max Wind Speed 12 mph    
Max Gust Speed -    
Visibility 3.1 miles    
Events      
Averages and records for this station are not official NWS values.
T = Trace of Precipitation, MM = Missing Value Source: Averaged Metar Reports

Daily Weather History Graph

Daily Weather History Graph

Search for Another Location

Airport or City:

Trip Planner

Search our weather history database for the weather conditions in past years. The results will help you decide how hot, cold, wet, or windy it might be!

Date:

Astronomy

Dec. 29, 2011 Rise Set
Actual Time 6:34 AM +07 5:58 PM +07
Civil Twilight 6:11 AM +07 6:21 PM +07
Nautical Twilight 5:45 AM +07 6:47 PM +07
Astronomical Twilight 5:18 AM +07 7:14 PM +07
Moon 9:59 AM +07 (12/29) 10:11 PM +07 (12/29)
Length of Visible Light 12h 09m
Length of Day
11h 23m
Waxing Crescent, 22% of the Moon is Illuminated
Dec 29
Waxing Crescent
Jan 1
First Quarter
Jan 9
Full
Jan 16
Last Quarter
Jan 23
New

Hourly Weather History & Observations

Time (+07) Temp. Heat Index Dew Point Humidity Pressure Visibility Wind Dir Wind Speed Gust Speed Precip Events Conditions
12:00 AM 77.0 °F - 71.6 °F 83% 29.89 in 1.2 mi North 6.9 mph - N/A   Mist
1:00 AM 75.2 °F - 69.8 °F 83% 29.89 in 1.2 mi North 6.9 mph - N/A   Mist
1:30 AM 73.4 °F - 69.8 °F 88% - - North - - N/A   Mist
5:30 AM 71.6 °F - 68.0 °F 88% 29.83 in 1.2 mi NNE 4.6 mph - N/A   Mist
6:00 AM 73.4 °F - 68.0 °F 83% 29.89 in 1.2 mi NNE 4.6 mph - N/A   Mist
6:30 AM 73.4 °F - 68.0 °F 83% 29.92 in 1.2 mi NE 4.6 mph - N/A   Mist
7:00 AM 73.4 °F - 68.0 °F 83% 29.92 in 1.2 mi NNE 4.6 mph - N/A   Mist
7:30 AM 75.2 °F - 68.0 °F 78% 29.95 in 1.2 mi North 6.9 mph - N/A   Mist
8:00 AM 77.0 °F - 68.0 °F 74% 29.95 in 1.9 mi North 4.6 mph - N/A   Mist
8:30 AM 80.6 °F 83.9 °F 69.8 °F 70% 29.95 in 1.9 mi NNE 6.9 mph - N/A   Mist
9:00 AM 82.4 °F 85.4 °F 68.0 °F 62% 29.95 in 2.5 mi NNE 9.2 mph - N/A   Haze
9:30 AM 86.0 °F 95.1 °F 75.2 °F 70% 29.95 in 2.5 mi NE 11.5 mph - N/A   Haze
10:00 AM 86.0 °F 89.4 °F 68.0 °F 55% 29.95 in 3.1 mi NNE 4.6 mph - N/A   Haze
10:30 AM 87.8 °F 91.4 °F 68.0 °F 52% 29.62 in 3.1 mi NNE 9.2 mph - N/A   Haze
11:00 AM 87.8 °F 91.4 °F 68.0 °F 52% 29.92 in 3.1 mi NNE 9.2 mph - N/A   Haze
11:30 AM 87.8 °F 91.4 °F 68.0 °F 52% 29.92 in 3.7 mi NNE 9.2 mph - N/A   Unknown
12:30 PM - - - N/A% - 3.7 mi NE 9.2 mph - N/A   Scattered Clouds
1:00 PM 91.4 °F 94.0 °F 66.2 °F 43% 29.86 in 4.3 mi ENE 6.9 mph - N/A   Scattered Clouds
1:30 PM 91.4 °F 95.4 °F 68.0 °F 46% 29.83 in 5.0 mi ENE 4.6 mph - N/A   Mostly Cloudy
2:00 PM 89.6 °F 94.7 °F 69.8 °F 52% 29.83 in 5.0 mi South 9.2 mph - N/A   Mostly Cloudy
2:30 PM 89.6 °F 94.7 °F 69.8 °F 52% 29.83 in 5.0 mi South 6.9 mph - N/A   Mostly Cloudy
3:00 PM 91.4 °F 98.4 °F 71.6 °F 52% 29.83 in 5.0 mi West 6.9 mph - N/A   Mostly Cloudy
3:30 PM 89.6 °F 94.7 °F 69.8 °F 52% 29.80 in 5.0 mi SSE 6.9 mph - N/A   Mostly Cloudy
4:00 PM 87.8 °F 95.6 °F 73.4 °F 62% 29.80 in 5.0 mi SSE 6.9 mph - N/A   Mostly Cloudy
4:30 PM 86.0 °F 93.4 °F 73.4 °F 66% 29.80 in 4.3 mi SSE 4.6 mph - N/A   Mostly Cloudy
5:00 PM 84.2 °F 92.3 °F 75.2 °F 74% 29.83 in 3.7 mi SE 4.6 mph - N/A   Mostly Cloudy
5:30 PM 84.2 °F 92.3 °F 75.2 °F 74% 29.83 in 3.7 mi SSE 5.8 mph - N/A   Mostly Cloudy
6:00 PM 84.2 °F 90.9 °F 73.4 °F 70% 29.83 in 3.7 mi SSE 3.5 mph - N/A   Mostly Cloudy
6:30 PM 82.4 °F 89.5 °F 75.2 °F 79% 29.86 in 3.1 mi SE 3.5 mph - N/A   Mostly Cloudy
7:00 PM 82.4 °F 89.5 °F 75.2 °F 79% 29.86 in 3.1 mi Calm Calm - N/A   Mist
7:30 PM 80.6 °F 86.2 °F 75.2 °F 84% 29.89 in 3.1 mi Calm Calm - N/A   Mist
8:00 PM 80.6 °F 86.2 °F 75.2 °F 84% 29.89 in 3.1 mi NNE 3.5 mph - N/A   Mist
8:30 PM 78.8 °F - 73.4 °F 83% 29.89 in 3.1 mi NNE 4.6 mph - N/A   Mist
9:00 PM 78.8 °F - 73.4 °F 83% 29.89 in 3.1 mi North 4.6 mph - N/A   Mist
9:30 PM 77.0 °F - 73.4 °F 89% 29.92 in 3.1 mi NNE 3.5 mph - N/A   Mist
10:00 PM 77.0 °F - 73.4 °F 89% 29.92 in 3.1 mi NNE 4.6 mph - N/A   Mist
10:30 PM 77.0 °F - 71.6 °F 83% 29.92 in 2.5 mi North 3.5 mph - N/A   Mist
11:00 PM 77.0 °F - 71.6 °F 83% 29.92 in 2.5 mi North 3.5 mph - N/A   Mist
11:30 PM 77.0 °F - 71.6 °F 83% 29.92 in 2.5 mi North 2.3 mph - N/A   Mist